User: anonymous   Login
Location: Gouvernes
(48.8601°N, 2.6907°E)
Time: 03:17:40
(UTC+00:00)
Language:

CSL-04 Debris - Orbit

View from above orbital plane
View from above orbital plane
View from above satellite
View from above satellite

Ground track
Ground track

The orbit data is extracted from the following two-line orbital elements,

1 25733U 99025D   22020.57187684  .00000211  00000-0  12820-3 0  9997
2 25733  98.8862  60.9084 0015768 106.2901 254.0009 14.16544265172105
Epoch (UTC): 20 January 2022 13:43:30
Eccentricity: 0.0015768
inclination: 98.8862°
perigee height: 825 km
apogee height: 848 km
right ascension of ascending node: 60.9084°
argument of perigee: 106.2901°
revolutions per day: 14.16544265
mean anomaly at epoch: 254.0009°
orbit number at epoch: 17210

The dashed part of the orbit path shows where the satellite is in the earth's shadow,  

DLR